Location: Observatory
(52.1446°N, 0.4624°W)
Time: 18:30:28
(UTC+00:00)

ISS - Pass Details

Date: 30 November 2023
Orbit: 415 x 417 km, 51.6° (Epoch: 06 December)

Event Time Altitude Azimuth Distance (km) Brightness Sun altitude
Rises 18:01:40 0° 282° (WNW) 2,363 1.3 -18.6°
Reaches altitude 10° 18:03:49 10° 276° (W) 1,498 0.2 -19.0°
Maximum altitude 18:07:03 46° 202° (SSW) 574 -2.9 -19.4°
Enters shadow 18:07:48 38° 162° (SSE) 660 -2.9 -19.6°
